Houlton, ME

10:54 AM EDT on June 22, 2017 (GMT -0400)
Houlton International

Weather History for KHUL - March, 2014

Change the Weather History Date:

Wednesday, March 19, 2014

  Actual Average Record
Temperature  
Mean Temperature 12 °F 27 °F  
Max Temperature 33 °F 37 °F 59 °F (1970)
Min Temperature -9 °F 16 °F -19 °F (1993)
Degree Days  
Heating Degree Days 53 38  
Month to date heating degree days 990 796  
Since 1 July heating degree days 7580 7369  
Cooling Degree Days 0 0  
Month to date cooling degree days 0 0  
Year to date cooling degree days 0 0  
Moisture  
Dew Point 0 °F    
Average Humidity 54    
Maximum Humidity 83    
Minimum Humidity 25    
Precipitation  
Precipitation T in 0.08 in 0.78 in (1991)
Month to date precipitation 0.46 1.56  
Year to date precipitation 6.04 6.42  
Sea Level Pressure  
Sea Level Pressure 30.31 in    
Wind  
Wind Speed 3 mph (ESE)    
Max Wind Speed 14 mph    
Max Gust Speed 24 mph    
Visibility 10 miles    
Events Snow    
T = Trace of Precipitation, MM = Missing Value Source: NWS Daily Summary

Daily Weather History Graph

Daily Weather History Graph

Search for Another Location

Airport or City:

Trip Planner

Search our weather history database for the weather conditions in past years. The results will help you decide how hot, cold, wet, or windy it might be!

Date:

Astronomy

Mar. 19, 2014 Rise Set
Actual Time 6:36 AM EDT 6:42 PM EDT
Civil Twilight 6:06 AM EDT 7:12 PM EDT
Nautical Twilight 5:31 AM EDT 7:47 PM EDT
Astronomical Twilight 4:55 AM EDT 8:23 PM EDT
Moon 10:08 PM EDT (3/19) 7:49 AM EDT (3/19)
Length of Visible Light 13h 05m
Length of Day
12h 06m
Waning Gibbous, 91% of the Moon is Illuminated
Mar 19
Waning Gibbous
Mar 23
Last Quarter
Mar 30
New
Apr 7
First Quarter
Apr 15
Full

Hourly Weather History & Observations

Time (EDT) Temp. Windchill Dew Point Humidity Pressure Visibility Wind Dir Wind Speed Gust Speed Precip Events Conditions
12:53 AM -0.0 °F - -6.0 °F 76% 30.36 in 10.0 mi Calm Calm - N/A   Clear
1:53 AM -2.0 °F - -7.1 °F 79% 30.38 in 10.0 mi Calm Calm - N/A   Clear
2:53 AM -4.0 °F - -9.0 °F 79% 30.37 in 10.0 mi Calm Calm - N/A   Clear
3:53 AM -6.0 °F - -11.0 °F 79% 30.37 in 10.0 mi Calm Calm - N/A   Clear
4:53 AM -7.1 °F - -11.9 °F 79% 30.38 in 10.0 mi Calm Calm - N/A   Clear
5:53 AM -6.0 °F - -11.9 °F 75% 30.39 in 10.0 mi Calm Calm - N/A   Clear
6:53 AM -8.0 °F - -14.1 °F 75% 30.39 in 10.0 mi Calm Calm - N/A   Clear
7:53 AM -0.9 °F - -7.1 °F 75% 30.42 in 10.0 mi Calm Calm - N/A   Clear
8:53 AM 15.1 °F - -2.9 °F 45% 30.43 in 10.0 mi Calm Calm - N/A   Clear
9:53 AM 19.9 °F - -0.0 °F 42% 30.44 in 10.0 mi Calm Calm - N/A   Clear
10:53 AM 24.1 °F 18.2 °F 3.9 °F 42% 30.43 in 10.0 mi NE 4.6 mph - N/A   Clear
11:53 AM 28.9 °F - 3.9 °F 35% 30.38 in 10.0 mi Calm Calm - N/A   Clear
12:53 PM 30.0 °F 26.5 °F 3.9 °F 33% 30.36 in 10.0 mi NE 3.5 mph - N/A   Clear
1:53 PM 30.0 °F - -0.0 °F 28% 30.32 in 10.0 mi Calm Calm - N/A   Scattered Clouds
2:53 PM 32.0 °F 28.7 °F 5.0 °F 32% 30.30 in 10.0 mi NNE 3.5 mph - N/A   Partly Cloudy
3:53 PM 30.9 °F 25.2 °F 9.0 °F 40% 30.27 in 10.0 mi NNE 5.8 mph - N/A   Clear
4:53 PM 33.1 °F 30.0 °F 5.0 °F 31% 30.24 in 10.0 mi Variable 3.5 mph - N/A   Clear
5:53 PM 33.1 °F 28.7 °F 1.0 °F 26% 30.24 in 10.0 mi South 4.6 mph - N/A   Mostly Cloudy
6:53 PM 32.0 °F - 3.9 °F 31% 30.22 in 10.0 mi Calm Calm - N/A   Overcast
7:53 PM 32.0 °F 25.6 °F 3.0 °F 29% 30.19 in 10.0 mi ESE 6.9 mph - N/A   Overcast
8:53 PM 32.0 °F 24.8 °F 3.9 °F 31% 30.17 in 10.0 mi SSE 8.1 mph - N/A   Overcast
9:53 PM 32.0 °F 24.8 °F 9.0 °F 38% 30.15 in 10.0 mi SSE 8.1 mph - N/A   Overcast
10:53 PM 30.9 °F 24.3 °F 15.1 °F 52% 30.16 in 10.0 mi Variable 6.9 mph - N/A   Overcast
11:53 PM 30.0 °F 21.7 °F 17.1 °F 59% 30.15 in 6.0 mi South 9.2 mph 24.2 mph 0.00 in Snow Light Snow